TimeEDT,TemperatureF,Dew PointF,Humidity,Sea Level PressureIn,VisibilityMPH,Wind Direction,Wind SpeedMPH,Gust SpeedMPH,PrecipitationIn,Events,Conditions,WindDirDegrees,DateUTC
12:56 AM,36.0,30.0,79,29.87,10.0,SSW,5.8,-,N/A,,Overcast,200,2013-03-27 04:56:00
1:56 AM,35.1,30.0,82,29.87,10.0,South,4.6,-,N/A,,Overcast,190,2013-03-27 05:56:00
2:56 AM,35.1,30.0,82,29.86,10.0,SSW,4.6,-,N/A,,Overcast,200,2013-03-27 06:56:00
3:56 AM,35.1,30.9,85,29.86,10.0,SSW,6.9,-,N/A,,Overcast,210,2013-03-27 07:56:00
4:56 AM,34.0,30.0,85,29.86,10.0,SSW,5.8,-,N/A,,Overcast,210,2013-03-27 08:56:00
5:56 AM,33.1,30.0,89,29.87,10.0,SSW,4.6,-,N/A,,Overcast,200,2013-03-27 09:56:00
6:56 AM,33.1,30.0,89,29.88,10.0,SSW,8.1,-,N/A,,Overcast,210,2013-03-27 10:56:00
7:56 AM,35.1,30.9,85,29.90,10.0,SW,4.6,-,N/A,,Scattered Clouds,220,2013-03-27 11:56:00
8:56 AM,36.0,28.9,76,29.92,10.0,WSW,8.1,-,N/A,,Overcast,240,2013-03-27 12:56:00
9:56 AM,39.0,28.9,67,29.93,10.0,West,5.8,-,N/A,,Partly Cloudy,270,2013-03-27 13:56:00
10:56 AM,41.0,28.9,62,29.93,10.0,WSW,3.5,-,N/A,,Clear,240,2013-03-27 14:56:00
11:56 AM,42.1,27.0,55,29.93,10.0,West,10.4,-,N/A,,Clear,260,2013-03-27 15:56:00
12:56 PM,42.1,28.0,58,29.94,10.0,WSW,10.4,-,N/A,,Clear,240,2013-03-27 16:56:00
1:56 PM,44.1,27.0,51,29.94,10.0,WSW,11.5,-,N/A,,Partly Cloudy,250,2013-03-27 17:56:00
2:56 PM,43.0,27.0,53,29.93,10.0,WSW,12.7,-,N/A,,Mostly Cloudy,250,2013-03-27 18:56:00
3:56 PM,43.0,30.9,62,29.94,10.0,WSW,10.4,-,N/A,,Mostly Cloudy,250,2013-03-27 19:56:00
4:56 PM,42.1,33.1,70,29.94,10.0,WSW,6.9,-,N/A,,Overcast,240,2013-03-27 20:56:00
5:56 PM,42.1,32.0,67,29.95,10.0,SW,6.9,-,N/A,,Overcast,230,2013-03-27 21:56:00
6:56 PM,39.9,30.9,70,29.97,10.0,WSW,5.8,-,N/A,,Overcast,250,2013-03-27 22:56:00
7:56 PM,37.9,30.9,76,29.99,10.0,SW,4.6,-,N/A,,Overcast,220,2013-03-27 23:56:00
8:56 PM,37.9,32.0,79,30.00,10.0,SW,4.6,-,N/A,,Overcast,220,2013-03-28 00:56:00
9:56 PM,37.0,32.0,82,30.00,10.0,SW,5.8,-,N/A,,Overcast,220,2013-03-28 01:56:00
10:56 PM,36.0,32.0,86,30.00,10.0,SW,4.6,-,N/A,,Overcast,220,2013-03-28 02:56:00
11:56 PM,34.0,30.9,89,30.00,10.0,South,4.6,-,N/A,,Clear,190,2013-03-28 03:56:00